Location: Recife
(8.0585°S, 34.8848°W)
Time: 11:16:26
(UTC-03:00)

Altair - Pass Details

Date: 19 April 2026
Orbit: 1501 x 1682 km, 47.2° (Epoch: 20 May)

Event Time Altitude Azimuth Distance (km) Brightness Sun altitude
Rises 21:11:02 0° 310° (NW) 4,659 10.4 -58.4°
Reaches altitude 10° 21:14:08 10° 306° (NW) 3,665 9.8 -59.2°
Enters shadow 21:15:00 13° 304° (NW) 3,394 9.5 -59.4°
Maximum altitude 21:23:06 58° 229° (SW) 1,709 - -61.4°
Drops below altitude 10° 21:32:07 10° 151° (SSE) 3,668 - -63.6°
Sets 21:35:15 0° 146° (SSE) 4,663 - -64.3°
